Voltar ao catálogo

STARLINK-5174

AtivoComunicaçõesVLEO
NORAD 54067·PAYLOAD·🇺🇸 United States

Lançado Oct 20, 2022 de Cape Canaveral Space Force Station

Loading…

Próximas Passagens (próximas 24 horas)

TLE

AtualizadoSource: CelesTrak SupGP

Época: Sep 14, 2026, 20:53 UTC

1 54067C 22136S   26257.87062500  .00013501  00000+0  38619-3 0  2572
2 54067  53.1576 203.9403 0001391 100.8095 146.6970 15.35398412    14

Acompanhe STARLINK-5174 em tempo real com AllMySat

Download on the App Store